Regional Weather Roundup
Issued by NWS Northern Indiana

Home | Current Version | Previous Version | Text Only | Print | Product List | Glossary On
Versions: 1 2 3 4 5 6 7 8 9 10 11 12 13 14 15 16 17 18 19 20 21 22 23 24 25 26 27 28 29 30 31 32 33 34 35 36 37 38 39 40 41 42 43 44 45 46 47 48 49 50
000
ASUS43 KIWX 202210
RWRIWX

KIWX WEATHER ROUNDUP
NATIONAL WEATHER SERVICE NORTHERN INDIANA
500 PM EST SAT DEC 20 2014

NOTE: "FAIR" INDICATES FEW OR NO CLOUDS BELOW 12,000 FEET WITH NO
SIGNIFICANT WEATHER AND/OR OBSTRUCTIONS TO VISIBILITY.

* THESE STATIONS ARE NOT UNDER NWS QUALITY CONTROL. THEY ALSO MAY NOT
  REPORT WEATHER SUCH AS PRECIPITATION OR FOG.

INZ001>027-202300-
NORTHERN INDIANA

CITY           SKY/WX    TMP DP  RH WIND       PRES   REMARKS
GARY*          CLOUDY    34  23  64 SW7       30.27R WCI  28
VALPARAISO     CLOUDY    32  24  72 SW3       30.26S
MICHIGAN CITY* CLOUDY    32  21  64 CALM      30.27S
LAPORTE*       CLOUDY    33  27  77 SW3       30.26S
KNOX*          CLOUDY    32  23  69 CALM      30.26S
SOUTH BEND     CLOUDY    33  24  69 W5        30.27R WCI  29
GOSHEN         CLOUDY    31  27  85 CALM      30.26R
MONTICELLO*    CLOUDY    32  26  78 CALM      30.27R
LOGANSPORT*    CLOUDY    32  27  80 CALM      30.28S
ROCHESTER*     PTCLDY    34  30  86 W3        30.27S
WARSAW*        CLOUDY    32  28  86 W3        30.26R
ANGOLA*        CLOUDY    30  23  74 NW5       30.24S WCI  25
FORT WAYNE     FLURRIES  32  26  78 SW3       30.27R
HUNTINGTON*    CLOUDY    32  25  77 W3        30.27R
PERU/GRISSOM   CLOUDY    31  31  96 W2        30.27R
MARION*        CLOUDY    31  27  83 CALM      30.28R

$$
INZ028>050-202300-
CENTRAL INDIANA

CITY           SKY/WX    TMP DP  RH WIND       PRES   REMARKS
LAFAYETTE      CLOUDY    32  25  75 CALM      30.27R
KOKOMO*        MOCLDY    32  25  74 CALM      30.27R
MUNCIE*        CLOUDY    32  24  72 CALM      30.26R
INDIANAPOLIS   CLOUDY    32  23  69 CALM      30.26R

$$
MIZ043>046-050>051-056>058-064>065-071>073-077>080-202300-
SOUTHWEST LOWER MICHIGAN

CITY           SKY/WX    TMP DP  RH WIND       PRES   REMARKS
BATTLE CREEK   CLOUDY    32  23  69 W6        30.25R WCI  26
BENTON HARBOR  CLOUDY    32  26  78 SW6       30.26R WCI  26
COLDWATER*     CLOUDY    31  23  74 MISG      30.25R
HILLSDALE*     CLOUDY    30  21  71 CALM      30.23S
HOLLAND        CLOUDY    31  26  82 SE6       30.26S HAZE    WCI  25
GRAND RAPIDS   CLOUDY    31  25  78 W5        30.26R HAZE    WCI  26
KALAMAZOO      CLOUDY    31  25  78 SW3       30.26R
STURGIS*       LGT SNOW  28  27  93 W3        30.25R
THREE RIVERS*  LGT SNOW  31  27  88 CALM      30.27R

$$
OHZ001>008-015>018-024>025-202300-
NORTHWEST OHIO

CITY           SKY/WX    TMP DP  RH WIND       PRES   REMARKS
WAUSEON*       CLOUDY    30  21  69 CALM      30.26R
DEFIANCE       CLOUDY    32  22  66 CALM      30.27R
FINDLAY        CLOUDY    31  24  75 S3        30.25S
TOLEDO EXPRESS CLOUDY    31  23  72 CALM      30.27R
TOLEDO METCALF CLOUDY    31  22  69 SE5       30.28R WCI  26
LIMA           CLOUDY    33  23  66 SW3       30.25R

$$
AND FOR LAKE MICHIGAN COASTAL AND OPEN LAKE BUOY OBSERVATIONS

STATION/POSITION TEMP    WIND        PRES    VSBY  WAVE
                 AIR SEA DIR/SP/G                  HT/PER
                 (F)     (DEG/KT/KT) (MB)    (MI)  (FT/S)
CALUMET HARBOR    33     210/  4/  6 1023.3R
SAINT JOSEPH      35     210/  9/ 10 1024.7S

$$
&&


USA.gov is the U.S. government's official web portal to all federal, state and local government web resources and services.